C/2006 VZ13 ( LINEAR )

Japanese version
Home page
Total 6,336 html files since Dec. 4, 1995
Updated on October 3, 2007

---------------------------------------------------------------------

* Profile

Discovery Date November 13, 2006
Magnitude 19.9 mag
Discoverer Lincoln Laboratory Near-Earth Asteroid Research project

* Pictures

* Orbital Elements

The following orbital elements are taken from MPC 60097:

Epoch 2007 Aug. 8.0 TT = JDT 2454320.5
T 2007 Aug. 10.8908 TT                                  MPC
q   1.015245             (2000.0)            P               Q
z  -0.000271       Peri.  174.1156      -0.3381575      -0.6820372
 +/-0.000006       Node    66.0274      -0.8897890      +0.4561015
e   1.000275       Incl.  134.7931      -0.3064717      -0.5716614
From 356 observations 2006 Nov. 13-2007 June 27, mean residual 0".6.

* Finding Charts

* Magnitudes Graph

        m1 = 8.0 + 5 log d + 14.0 log r

---------------------------------------------------------------------

The orbital elements are published at the MPC Ephemerides and Orbital Elements.
The charts are made with StellaNavigator Ver.2.0 for Windows (AstroArts / ASCII).
The magnitudes graphs are made with Comet for Windows.

---------------------------------------------------------------------

Copyright(C) 1995-2008 Seiichi Yoshida (comet@aerith.net). All rights reserved.